Year,Month,Day,Hour,Minute,Value (Times are PST for temperature in C)
2017,03,26,00,00,6.40
2017,03,26,00,01,6.40
2017,03,26,00,02,6.40
2017,03,26,00,03,6.40
2017,03,26,00,04,6.30
2017,03,26,00,05,6.30
2017,03,26,00,06,6.30
2017,03,26,00,07,6.30
2017,03,26,00,08,6.30
2017,03,26,00,09,6.20
2017,03,26,00,10,6.20
2017,03,26,00,11,6.20
2017,03,26,00,12,6.20
2017,03,26,00,13,6.10
2017,03,26,00,14,6.10
2017,03,26,00,15,6.10
2017,03,26,00,16,6.10
2017,03,26,00,17,6.10
2017,03,26,00,18,6.00
2017,03,26,00,19,6.00
2017,03,26,00,20,6.00
2017,03,26,00,21,6.00
2017,03,26,00,22,5.90
2017,03,26,00,23,5.90
2017,03,26,00,24,5.90
2017,03,26,00,25,5.90
2017,03,26,00,26,5.90
2017,03,26,00,27,5.90
2017,03,26,00,28,5.90
2017,03,26,00,29,5.80
2017,03,26,00,30,5.80
2017,03,26,00,31,5.80
2017,03,26,00,32,5.80
2017,03,26,00,33,5.80
2017,03,26,00,34,5.70
2017,03,26,00,35,5.70
2017,03,26,00,36,5.70
2017,03,26,00,37,5.70
2017,03,26,00,38,5.70
2017,03,26,00,39,5.70
2017,03,26,00,40,5.60
2017,03,26,00,41,5.60
2017,03,26,00,42,5.60
2017,03,26,00,43,5.60
2017,03,26,00,44,5.50
2017,03,26,00,45,5.50
2017,03,26,00,46,5.50
2017,03,26,00,47,5.50
2017,03,26,00,48,5.40
2017,03,26,00,49,5.40
2017,03,26,00,50,5.40
2017,03,26,00,51,5.40
2017,03,26,00,52,5.40
2017,03,26,00,53,5.40
2017,03,26,00,54,5.40
2017,03,26,00,55,5.40
2017,03,26,00,56,5.40
2017,03,26,00,57,5.40
2017,03,26,00,58,5.40
2017,03,26,00,59,5.40
2017,03,26,01,00,5.40
2017,03,26,01,01,5.40
2017,03,26,01,02,5.40
2017,03,26,01,03,5.40
2017,03,26,01,04,5.40
2017,03,26,01,05,5.40
2017,03,26,01,06,5.40
2017,03,26,01,07,5.40
2017,03,26,01,08,5.40
2017,03,26,01,09,5.40
2017,03,26,01,10,5.40
2017,03,26,01,11,5.40
2017,03,26,01,12,5.40
2017,03,26,01,13,5.40
2017,03,26,01,14,5.40
2017,03,26,01,15,5.40
2017,03,26,01,16,5.40
2017,03,26,01,17,5.40
2017,03,26,01,18,5.40
2017,03,26,01,19,5.40
2017,03,26,01,20,5.40
2017,03,26,01,21,5.40
2017,03,26,01,22,5.40
2017,03,26,01,23,5.40
2017,03,26,01,24,5.40
2017,03,26,01,25,5.40
2017,03,26,01,26,5.40
2017,03,26,01,27,5.40
2017,03,26,01,28,5.40
2017,03,26,01,29,5.40
2017,03,26,01,30,5.40
2017,03,26,01,31,5.40
2017,03,26,01,32,5.40
2017,03,26,01,33,5.40
2017,03,26,01,34,5.40
2017,03,26,01,35,5.40
2017,03,26,01,36,5.40
2017,03,26,01,37,5.40
2017,03,26,01,38,5.40
2017,03,26,01,39,5.40
2017,03,26,01,40,5.40
2017,03,26,01,41,5.40
2017,03,26,01,42,5.40
2017,03,26,01,43,5.40
2017,03,26,01,44,5.40
2017,03,26,01,45,5.40
2017,03,26,01,46,5.40
2017,03,26,01,47,5.40
2017,03,26,01,48,5.40
2017,03,26,01,49,5.40
2017,03,26,01,50,5.50
2017,03,26,01,51,5.50
2017,03,26,01,52,5.50
2017,03,26,01,53,5.50
2017,03,26,01,54,5.50
2017,03,26,01,55,5.50
2017,03,26,01,56,5.50
2017,03,26,01,57,5.50
2017,03,26,01,58,5.50
2017,03,26,01,59,5.50
2017,03,26,02,00,5.50
2017,03,26,02,01,5.50
2017,03,26,02,02,5.50
2017,03,26,02,03,5.50
2017,03,26,02,04,5.60
2017,03,26,02,05,5.60
2017,03,26,02,06,5.60
2017,03,26,02,07,5.60
2017,03,26,02,08,5.60
2017,03,26,02,09,5.60
2017,03,26,02,10,5.60
2017,03,26,02,11,5.60
2017,03,26,02,12,5.70
2017,03,26,02,13,5.70
2017,03,26,02,14,5.70
2017,03,26,02,15,5.80
2017,03,26,02,16,5.80
2017,03,26,02,17,5.80
2017,03,26,02,18,5.90
2017,03,26,02,19,5.90
2017,03,26,02,20,5.90
2017,03,26,02,21,6.00
2017,03,26,02,22,6.00
2017,03,26,02,23,6.10
2017,03,26,02,24,6.10
2017,03,26,02,25,6.20
2017,03,26,02,26,6.20
2017,03,26,02,27,6.20
2017,03,26,02,28,6.20
2017,03,26,02,29,6.30
2017,03,26,02,30,6.30
2017,03,26,02,31,6.30
2017,03,26,02,32,6.30
2017,03,26,02,33,6.30
2017,03,26,02,34,6.30
2017,03,26,02,35,6.30
2017,03,26,02,36,6.40
2017,03,26,02,37,6.40
2017,03,26,02,38,6.40
2017,03,26,02,39,6.40
2017,03,26,02,40,6.40
2017,03,26,02,41,6.40
2017,03,26,02,42,6.40
2017,03,26,02,43,6.40
2017,03,26,02,44,6.50
2017,03,26,02,45,6.50
2017,03,26,02,46,6.50
2017,03,26,02,47,6.50
2017,03,26,02,48,6.50
2017,03,26,02,49,6.50
2017,03,26,02,50,6.50
2017,03,26,02,51,6.50
2017,03,26,02,52,6.50
2017,03,26,02,53,6.50
2017,03,26,02,54,6.50
2017,03,26,02,55,6.50
2017,03,26,02,56,6.50
2017,03,26,02,57,6.50
2017,03,26,02,58,6.50
2017,03,26,02,59,6.50
2017,03,26,03,00,6.50
2017,03,26,03,01,6.50
2017,03,26,03,02,6.50
2017,03,26,03,03,6.50
2017,03,26,03,04,6.50
2017,03,26,03,05,6.40
2017,03,26,03,06,6.40
2017,03,26,03,07,6.40
2017,03,26,03,08,6.40
2017,03,26,03,09,6.40
2017,03,26,03,10,6.40
2017,03,26,03,11,6.40
2017,03,26,03,12,6.40
2017,03,26,03,13,6.40
2017,03,26,03,14,6.40
2017,03,26,03,15,6.40
2017,03,26,03,16,6.40
2017,03,26,03,17,6.40
2017,03,26,03,18,6.40
2017,03,26,03,19,6.40
2017,03,26,03,20,6.40
2017,03,26,03,21,6.40
2017,03,26,03,22,6.40
2017,03,26,03,23,6.40
2017,03,26,03,24,6.40
2017,03,26,03,25,6.40
2017,03,26,03,26,6.40
2017,03,26,03,27,6.40
2017,03,26,03,28,6.40
2017,03,26,03,29,6.40
2017,03,26,03,30,6.40
2017,03,26,03,31,6.40
2017,03,26,03,32,6.50
2017,03,26,03,33,6.50
2017,03,26,03,34,6.50
2017,03,26,03,35,6.50
2017,03,26,03,36,6.50
2017,03,26,03,37,6.50
2017,03,26,03,38,6.60
2017,03,26,03,39,6.60
2017,03,26,03,40,6.60
2017,03,26,03,41,6.60
2017,03,26,03,42,6.60
2017,03,26,03,43,6.60
2017,03,26,03,44,6.60
2017,03,26,03,45,6.60
2017,03,26,03,46,6.70
2017,03,26,03,47,6.70
2017,03,26,03,48,6.70
2017,03,26,03,49,6.70
2017,03,26,03,50,6.70
2017,03,26,03,51,6.70
2017,03,26,03,52,6.70
2017,03,26,03,53,6.70
2017,03,26,03,54,6.70
2017,03,26,03,55,6.70
2017,03,26,03,56,6.70
2017,03,26,03,57,6.70
2017,03,26,03,58,6.70
2017,03,26,03,59,6.70
2017,03,26,04,00,6.70
2017,03,26,04,01,6.70
2017,03,26,04,02,6.70
2017,03,26,04,03,6.70
2017,03,26,04,04,6.80
2017,03,26,04,05,6.80
2017,03,26,04,06,6.80
2017,03,26,04,07,6.80
2017,03,26,04,08,6.80
2017,03,26,04,09,6.90
2017,03,26,04,10,6.90
2017,03,26,04,11,6.90
2017,03,26,04,12,6.90
2017,03,26,04,13,6.90
2017,03,26,04,14,6.90
2017,03,26,04,15,6.90
2017,03,26,04,16,7.00
2017,03,26,04,17,7.00
2017,03,26,04,18,7.00
2017,03,26,04,19,7.00
2017,03,26,04,20,7.10
2017,03,26,04,21,7.00
2017,03,26,04,22,7.00
2017,03,26,04,23,7.00
2017,03,26,04,24,7.00
2017,03,26,04,25,6.90
2017,03,26,04,26,6.90
2017,03,26,04,27,6.90
2017,03,26,04,28,6.80
2017,03,26,04,29,6.80
2017,03,26,04,30,6.80
2017,03,26,04,31,6.80
2017,03,26,04,32,6.80
2017,03,26,04,33,6.80
2017,03,26,04,34,6.80
2017,03,26,04,35,6.80
2017,03,26,04,36,6.80
2017,03,26,04,37,6.80
2017,03,26,04,38,6.80
2017,03,26,04,39,6.80
2017,03,26,04,40,6.80
2017,03,26,04,41,6.80
2017,03,26,04,42,6.80
2017,03,26,04,43,6.80
2017,03,26,04,44,6.70
2017,03,26,04,45,6.70
2017,03,26,04,46,6.70
2017,03,26,04,47,6.70
2017,03,26,04,48,6.70
2017,03,26,04,49,6.70
2017,03,26,04,50,6.70
2017,03,26,04,51,6.70
2017,03,26,04,52,6.70
2017,03,26,04,53,6.70
2017,03,26,04,54,6.70
2017,03,26,04,55,6.70
2017,03,26,04,56,6.70
2017,03,26,04,57,6.70
2017,03,26,04,58,6.70
2017,03,26,04,59,6.70
2017,03,26,05,00,6.70
2017,03,26,05,01,6.70
2017,03,26,05,02,6.70
2017,03,26,05,03,6.70
2017,03,26,05,04,6.70
2017,03,26,05,05,6.70
2017,03,26,05,06,6.70
2017,03,26,05,07,6.70
2017,03,26,05,08,6.70
2017,03,26,05,09,6.70
2017,03,26,05,10,6.70
2017,03,26,05,11,6.70
2017,03,26,05,12,6.80
2017,03,26,05,13,6.80
2017,03,26,05,14,6.80
2017,03,26,05,15,6.80
2017,03,26,05,16,6.80
2017,03,26,05,17,6.90
2017,03,26,05,18,6.90
2017,03,26,05,19,6.90
2017,03,26,05,20,6.90
2017,03,26,05,21,7.00
2017,03,26,05,22,7.00
2017,03,26,05,23,7.00
2017,03,26,05,24,7.00
2017,03,26,05,25,7.00
2017,03,26,05,26,7.00
2017,03,26,05,27,7.10
2017,03,26,05,28,7.10
2017,03,26,05,29,7.10
2017,03,26,05,30,7.10
2017,03,26,05,31,7.10
2017,03,26,05,32,7.10
2017,03,26,05,33,7.10
2017,03,26,05,34,7.10
2017,03,26,05,35,7.10
2017,03,26,05,36,7.20
2017,03,26,05,37,7.20
2017,03,26,05,38,7.20
2017,03,26,05,39,7.20
2017,03,26,05,40,7.20
2017,03,26,05,41,7.20
2017,03,26,05,42,7.20
2017,03,26,05,43,7.20
2017,03,26,05,44,7.20
2017,03,26,05,45,7.20
2017,03,26,05,46,7.20
2017,03,26,05,47,7.20
2017,03,26,05,48,7.20
2017,03,26,05,49,7.20
2017,03,26,05,50,7.20
2017,03,26,05,51,7.20
2017,03,26,05,52,7.20
2017,03,26,05,53,7.20
2017,03,26,05,54,7.20
2017,03,26,05,55,7.20
2017,03,26,05,56,7.20
2017,03,26,05,57,7.20
2017,03,26,05,58,7.20
2017,03,26,05,59,7.20
2017,03,26,06,00,7.20
2017,03,26,06,01,7.20
2017,03,26,06,02,7.20
2017,03,26,06,03,7.20
2017,03,26,06,04,7.20
2017,03,26,06,05,7.20
2017,03,26,06,06,7.20
2017,03,26,06,07,7.20
2017,03,26,06,08,7.20
2017,03,26,06,09,7.20
2017,03,26,06,10,7.20
2017,03,26,06,11,7.20
2017,03,26,06,12,7.20
2017,03,26,06,13,7.20
2017,03,26,06,14,7.20
2017,03,26,06,15,7.10
2017,03,26,06,16,7.10
2017,03,26,06,17,7.10
2017,03,26,06,18,7.10
2017,03,26,06,19,7.10
2017,03,26,06,20,7.10
2017,03,26,06,21,7.10
2017,03,26,06,22,7.10
2017,03,26,06,23,7.10
2017,03,26,06,24,7.10
2017,03,26,06,25,7.10
2017,03,26,06,26,7.10
2017,03,26,06,27,7.10
2017,03,26,06,28,7.10
2017,03,26,06,29,7.10
2017,03,26,06,30,7.10
2017,03,26,06,31,7.10
2017,03,26,06,32,7.10
2017,03,26,06,33,7.10
2017,03,26,06,34,7.10
2017,03,26,06,35,7.00
2017,03,26,06,36,7.00
2017,03,26,06,37,6.90
2017,03,26,06,38,6.90
2017,03,26,06,39,6.80
2017,03,26,06,40,6.80
2017,03,26,06,41,6.80
2017,03,26,06,42,6.80
2017,03,26,06,43,6.80
2017,03,26,06,44,6.80
2017,03,26,06,45,6.80
2017,03,26,06,46,6.80
2017,03,26,06,47,6.80
2017,03,26,06,48,6.80
2017,03,26,06,49,6.80
2017,03,26,06,50,6.80
2017,03,26,06,51,6.80
2017,03,26,06,52,6.80
2017,03,26,06,53,6.80
2017,03,26,06,54,6.80
2017,03,26,06,55,6.80
2017,03,26,06,56,6.80
2017,03,26,06,57,6.80
2017,03,26,06,58,6.80
2017,03,26,06,59,6.80
2017,03,26,07,00,6.90
2017,03,26,07,01,6.90
2017,03,26,07,02,6.90
2017,03,26,07,03,6.90
2017,03,26,07,04,6.90
2017,03,26,07,05,6.90
2017,03,26,07,06,6.90
2017,03,26,07,07,6.90
2017,03,26,07,08,6.90
2017,03,26,07,09,6.90
2017,03,26,07,10,6.90
2017,03,26,07,11,6.90
2017,03,26,07,12,6.90
2017,03,26,07,13,6.90
2017,03,26,07,14,6.90
2017,03,26,07,15,6.90
2017,03,26,07,16,6.90
2017,03,26,07,17,6.90
2017,03,26,07,18,6.90
2017,03,26,07,19,6.90
2017,03,26,07,20,6.90
2017,03,26,07,21,6.90
2017,03,26,07,22,6.90
2017,03,26,07,23,6.90
2017,03,26,07,24,6.90
2017,03,26,07,25,6.90
2017,03,26,07,26,6.90
2017,03,26,07,27,6.90
2017,03,26,07,28,6.90
2017,03,26,07,29,6.90
2017,03,26,07,30,6.90
2017,03,26,07,31,6.90
2017,03,26,07,32,6.90
2017,03,26,07,33,6.90
2017,03,26,07,34,6.90
2017,03,26,07,35,7.00
2017,03,26,07,36,6.90
2017,03,26,07,37,6.90
2017,03,26,07,38,6.90
2017,03,26,07,39,6.90
2017,03,26,07,40,6.90
2017,03,26,07,41,7.00
2017,03,26,07,42,7.00
2017,03,26,07,43,7.00
2017,03,26,07,44,6.90
2017,03,26,07,45,6.90
2017,03,26,07,46,6.90
2017,03,26,07,47,6.90
2017,03,26,07,48,6.90
2017,03,26,07,49,7.00
2017,03,26,07,50,7.00
2017,03,26,07,51,6.90
2017,03,26,07,52,6.90
2017,03,26,07,53,6.90
2017,03,26,07,54,6.90
2017,03,26,07,55,6.90
2017,03,26,07,56,6.90
2017,03,26,07,57,6.90
2017,03,26,07,58,6.90
2017,03,26,07,59,6.90
2017,03,26,08,00,6.90
2017,03,26,08,01,6.90
2017,03,26,08,02,6.90
2017,03,26,08,03,6.90
2017,03,26,08,04,6.90
2017,03,26,08,05,6.90
2017,03,26,08,06,6.90
2017,03,26,08,07,6.90
2017,03,26,08,08,6.90
2017,03,26,08,09,7.00
2017,03,26,08,10,7.00
2017,03,26,08,11,7.00
2017,03,26,08,12,7.00
2017,03,26,08,13,7.00
2017,03,26,08,14,7.00
2017,03,26,08,15,7.00
2017,03,26,08,16,7.00
2017,03,26,08,17,7.10
2017,03,26,08,18,7.10
2017,03,26,08,19,7.10
2017,03,26,08,20,7.10
2017,03,26,08,21,7.10
2017,03,26,08,22,7.10
2017,03,26,08,23,7.10
2017,03,26,08,24,7.10
2017,03,26,08,25,7.20
2017,03,26,08,26,7.20
2017,03,26,08,27,7.20
2017,03,26,08,28,7.20
2017,03,26,08,29,7.20
2017,03,26,08,30,7.20
2017,03,26,08,31,7.30
2017,03,26,08,32,7.30
2017,03,26,08,33,7.30
2017,03,26,08,34,7.30
2017,03,26,08,35,7.30
2017,03,26,08,36,7.30
2017,03,26,08,37,7.30
2017,03,26,08,38,7.30
2017,03,26,08,39,7.30
2017,03,26,08,40,7.30
2017,03,26,08,41,7.30
2017,03,26,08,42,7.30
2017,03,26,08,43,7.30
2017,03,26,08,44,7.30
2017,03,26,08,45,7.30
2017,03,26,08,46,7.30
2017,03,26,08,47,7.30
2017,03,26,08,48,7.30
2017,03,26,08,49,7.30
2017,03,26,08,50,7.30
2017,03,26,08,51,7.30
2017,03,26,08,52,7.30
2017,03,26,08,53,7.30
2017,03,26,08,54,7.30
2017,03,26,08,55,7.30
2017,03,26,08,56,7.30
2017,03,26,08,57,7.40
2017,03,26,08,58,7.40
2017,03,26,08,59,7.40
2017,03,26,09,00,7.40
2017,03,26,09,01,7.40
2017,03,26,09,02,7.40
2017,03,26,09,03,7.40
2017,03,26,09,04,7.40
2017,03,26,09,05,7.40
2017,03,26,09,06,7.50
2017,03,26,09,07,7.50
2017,03,26,09,08,7.50
2017,03,26,09,09,7.50
2017,03,26,09,10,7.50
2017,03,26,09,11,7.50
2017,03,26,09,12,7.50
2017,03,26,09,13,7.50
2017,03,26,09,14,7.50
2017,03,26,09,15,7.50
2017,03,26,09,16,7.50
2017,03,26,09,17,7.50
2017,03,26,09,18,7.50
2017,03,26,09,19,7.60
2017,03,26,09,20,7.60
2017,03,26,09,21,7.60
2017,03,26,09,22,7.60
2017,03,26,09,23,7.60
2017,03,26,09,24,7.60
2017,03,26,09,25,7.60
2017,03,26,09,26,7.60
2017,03,26,09,27,7.50
2017,03,26,09,28,7.50
2017,03,26,09,29,7.60
2017,03,26,09,30,7.60
2017,03,26,09,31,7.60
2017,03,26,09,32,7.60
2017,03,26,09,33,7.60
2017,03,26,09,34,7.60
2017,03,26,09,35,7.60
2017,03,26,09,36,7.60
2017,03,26,09,37,7.60
2017,03,26,09,38,7.60
2017,03,26,09,39,7.60
2017,03,26,09,40,7.50
2017,03,26,09,41,7.60
2017,03,26,09,42,7.60
2017,03,26,09,43,7.50
2017,03,26,09,44,7.50
2017,03,26,09,45,7.50
2017,03,26,09,46,7.50
2017,03,26,09,47,7.50
2017,03,26,09,48,7.60
2017,03,26,09,49,7.50
2017,03,26,09,50,7.60
2017,03,26,09,51,7.60
2017,03,26,09,52,7.60
2017,03,26,09,53,7.60
2017,03,26,09,54,7.60
2017,03,26,09,55,7.60
2017,03,26,09,56,7.60
2017,03,26,09,57,7.50
2017,03,26,09,58,7.50
2017,03,26,09,59,7.50
2017,03,26,10,00,7.50
2017,03,26,10,01,7.50
2017,03,26,10,02,7.50
2017,03,26,10,03,7.50
2017,03,26,10,04,7.50
2017,03,26,10,05,7.50
2017,03,26,10,06,7.50
2017,03,26,10,07,7.50
2017,03,26,10,08,7.50
2017,03,26,10,09,7.50
2017,03,26,10,10,7.50
2017,03,26,10,11,7.50
2017,03,26,10,12,7.40
2017,03,26,10,13,7.40
2017,03,26,10,14,7.40
2017,03,26,10,15,7.40
2017,03,26,10,16,7.40
2017,03,26,10,17,7.40
2017,03,26,10,18,7.40
2017,03,26,10,19,7.40
2017,03,26,10,20,7.40
2017,03,26,10,21,7.40
2017,03,26,10,22,7.40
2017,03,26,10,23,7.40
2017,03,26,10,24,7.40
2017,03,26,10,25,7.40
2017,03,26,10,26,7.30
2017,03,26,10,27,7.30
2017,03,26,10,28,7.30
2017,03,26,10,29,7.30
2017,03,26,10,30,7.30
2017,03,26,10,31,7.30
2017,03,26,10,32,7.30
2017,03,26,10,33,7.30
2017,03,26,10,34,7.30
2017,03,26,10,35,7.30
2017,03,26,10,36,7.30
2017,03,26,10,37,7.30
2017,03,26,10,38,7.30
2017,03,26,10,39,7.30
2017,03,26,10,40,7.30
2017,03,26,10,41,7.30
2017,03,26,10,42,7.30
2017,03,26,10,43,7.30
2017,03,26,10,44,7.30
2017,03,26,10,45,7.30
2017,03,26,10,46,7.30
2017,03,26,10,47,7.30
2017,03,26,10,48,7.30
2017,03,26,10,49,7.30
2017,03,26,10,50,7.30
2017,03,26,10,51,7.30
2017,03,26,10,52,7.30
2017,03,26,10,53,7.30
2017,03,26,10,54,7.30
2017,03,26,10,55,7.30
2017,03,26,10,56,7.30
2017,03,26,10,57,7.30
2017,03,26,10,58,7.30
2017,03,26,10,59,7.30
2017,03,26,11,00,7.30
2017,03,26,11,01,7.30
2017,03,26,11,02,7.30
2017,03,26,11,03,7.30
2017,03,26,11,04,7.30
2017,03,26,11,05,7.30
2017,03,26,11,06,7.30
2017,03,26,11,07,7.30
2017,03,26,11,08,7.30
2017,03,26,11,09,7.30
2017,03,26,11,10,7.30
2017,03,26,11,11,7.30
2017,03,26,11,12,7.30
2017,03,26,11,13,7.30
2017,03,26,11,14,7.30
2017,03,26,11,15,7.30
2017,03,26,11,16,7.30
2017,03,26,11,17,7.30
2017,03,26,11,18,7.30
2017,03,26,11,19,7.30
2017,03,26,11,20,7.30
2017,03,26,11,21,7.30
2017,03,26,11,22,7.30
2017,03,26,11,23,7.40
2017,03,26,11,24,7.40
2017,03,26,11,25,7.40
2017,03,26,11,26,7.40
2017,03,26,11,27,7.40
2017,03,26,11,28,7.40
2017,03,26,11,29,7.40
2017,03,26,11,30,7.40
2017,03,26,11,31,7.40
2017,03,26,11,32,7.40
2017,03,26,11,33,7.40
2017,03,26,11,34,7.50
2017,03,26,11,35,7.50
2017,03,26,11,36,7.50
2017,03,26,11,37,7.50
2017,03,26,11,38,7.50
2017,03,26,11,39,7.60
2017,03,26,11,40,7.60
2017,03,26,11,41,7.60
2017,03,26,11,42,7.70
2017,03,26,11,43,7.70
2017,03,26,11,44,7.70
2017,03,26,11,45,7.70
2017,03,26,11,46,7.70
2017,03,26,11,47,7.70
2017,03,26,11,48,7.70
2017,03,26,11,49,7.70
2017,03,26,11,50,7.70
2017,03,26,11,51,7.70
2017,03,26,11,52,7.70
2017,03,26,11,53,7.70
2017,03,26,11,54,7.70
2017,03,26,11,55,7.70
2017,03,26,11,56,7.70
2017,03,26,11,57,7.70
2017,03,26,11,58,7.70
2017,03,26,11,59,7.70
2017,03,26,12,00,7.70
2017,03,26,12,01,7.70
2017,03,26,12,02,7.60
2017,03,26,12,03,7.60
2017,03,26,12,04,7.70
2017,03,26,12,05,7.60
2017,03,26,12,06,7.60
2017,03,26,12,07,7.60
2017,03,26,12,08,7.60
2017,03,26,12,09,7.70
2017,03,26,12,10,7.70
2017,03,26,12,11,7.70
2017,03,26,12,12,7.70
2017,03,26,12,13,7.80
2017,03,26,12,14,7.80
2017,03,26,12,15,7.80
2017,03,26,12,16,7.80
2017,03,26,12,17,7.80
2017,03,26,12,18,7.90
2017,03,26,12,19,7.90
2017,03,26,12,20,7.90
2017,03,26,12,21,7.90
2017,03,26,12,22,7.90
2017,03,26,12,23,7.90
2017,03,26,12,24,7.90
2017,03,26,12,25,8.00
2017,03,26,12,26,8.00
2017,03,26,12,27,8.00
2017,03,26,12,28,8.00
2017,03,26,12,29,8.00
2017,03,26,12,30,8.00
2017,03,26,12,31,7.90
2017,03,26,12,32,7.90
2017,03,26,12,33,7.90
2017,03,26,12,34,7.90
2017,03,26,12,35,7.90
2017,03,26,12,36,7.90
2017,03,26,12,37,7.90
2017,03,26,12,38,8.00
2017,03,26,12,39,8.00
2017,03,26,12,40,8.00
2017,03,26,12,41,8.10
2017,03,26,12,42,8.10
2017,03,26,12,43,8.10
2017,03,26,12,44,8.10
2017,03,26,12,45,8.20
2017,03,26,12,46,8.20
2017,03,26,12,47,8.30
2017,03,26,12,48,8.30
2017,03,26,12,49,8.30
2017,03,26,12,50,8.30
2017,03,26,12,51,8.30
2017,03,26,12,52,8.30
2017,03,26,12,53,8.20
2017,03,26,12,54,8.20
2017,03,26,12,55,8.20
2017,03,26,12,56,8.20
2017,03,26,12,57,8.20
2017,03,26,12,58,8.10
2017,03,26,12,59,8.20
2017,03,26,13,00,8.20
2017,03,26,13,01,8.20
2017,03,26,13,02,8.20
2017,03,26,13,03,8.20
2017,03,26,13,04,8.20
2017,03,26,13,05,8.20
2017,03,26,13,06,8.20
2017,03,26,13,07,8.20
2017,03,26,13,08,8.20
2017,03,26,13,09,8.10
2017,03,26,13,10,8.10
2017,03,26,13,11,8.10
2017,03,26,13,12,8.20
2017,03,26,13,13,8.20
2017,03,26,13,14,8.20
2017,03,26,13,15,8.30
2017,03,26,13,16,8.30
2017,03,26,13,17,8.30
2017,03,26,13,18,8.30
2017,03,26,13,19,8.40
2017,03,26,13,20,8.40
2017,03,26,13,21,8.40
2017,03,26,13,22,8.50
2017,03,26,13,23,8.50
2017,03,26,13,24,8.50
2017,03,26,13,25,8.50
2017,03,26,13,26,8.50
2017,03,26,13,27,8.60
2017,03,26,13,28,8.60
2017,03,26,13,29,8.60
2017,03,26,13,30,8.60
2017,03,26,13,31,8.60
2017,03,26,13,32,8.60
2017,03,26,13,33,8.60
2017,03,26,13,34,8.60
2017,03,26,13,35,8.60
2017,03,26,13,36,8.60
2017,03,26,13,37,8.60
2017,03,26,13,38,8.60
2017,03,26,13,39,8.70
2017,03,26,13,40,8.70
2017,03,26,13,41,8.70
2017,03,26,13,42,8.70
2017,03,26,13,43,8.70
2017,03,26,13,44,8.70
2017,03,26,13,45,8.70
2017,03,26,13,46,8.70
2017,03,26,13,47,8.70
2017,03,26,13,48,8.80
2017,03,26,13,49,8.80
2017,03,26,13,50,8.80
2017,03,26,13,51,8.80
2017,03,26,13,52,8.80
2017,03,26,13,53,8.80
2017,03,26,13,54,8.90
2017,03,26,13,55,8.90
2017,03,26,13,56,8.90
2017,03,26,13,57,9.00
2017,03,26,13,58,9.10
2017,03,26,13,59,9.10
2017,03,26,14,00,9.10
2017,03,26,14,01,9.10
2017,03,26,14,02,9.20
2017,03,26,14,03,9.20
2017,03,26,14,04,9.20
2017,03,26,14,05,9.30
2017,03,26,14,06,9.30
2017,03,26,14,07,9.40
2017,03,26,14,08,9.40
2017,03,26,14,09,9.40
2017,03,26,14,10,9.40
2017,03,26,14,11,9.40
2017,03,26,14,12,9.40
2017,03,26,14,13,9.50
2017,03,26,14,14,9.50
2017,03,26,14,15,9.40
2017,03,26,14,16,9.40
2017,03,26,14,17,9.40
2017,03,26,14,18,9.40
2017,03,26,14,19,9.40
2017,03,26,14,20,9.40
2017,03,26,14,21,9.40
2017,03,26,14,22,9.40
2017,03,26,14,23,9.40
2017,03,26,14,24,9.50
2017,03,26,14,25,9.50
2017,03,26,14,26,9.50
2017,03,26,14,27,9.50
2017,03,26,14,28,9.40
2017,03,26,14,29,9.40
2017,03,26,14,30,9.40
2017,03,26,14,31,9.40
2017,03,26,14,32,9.40
2017,03,26,14,33,9.40
2017,03,26,14,34,9.40
2017,03,26,14,35,9.30
2017,03,26,14,36,9.30
2017,03,26,14,37,9.30
2017,03,26,14,38,9.30
2017,03,26,14,39,9.20
2017,03,26,14,40,9.20
2017,03,26,14,41,9.20
2017,03,26,14,42,9.20
2017,03,26,14,43,9.30
2017,03,26,14,44,9.30
2017,03,26,14,45,9.30
2017,03,26,14,46,9.30
2017,03,26,14,47,9.30
2017,03,26,14,48,9.30
2017,03,26,14,49,9.30
2017,03,26,14,50,9.30
2017,03,26,14,51,9.20
2017,03,26,14,52,9.20
2017,03,26,14,53,9.20
2017,03,26,14,54,9.20
2017,03,26,14,55,9.20
2017,03,26,14,56,9.20
2017,03,26,14,57,9.20
2017,03,26,14,58,9.20
2017,03,26,14,59,9.20
2017,03,26,15,00,9.20
2017,03,26,15,01,9.20
2017,03,26,15,02,9.10
2017,03,26,15,03,9.10
2017,03,26,15,04,9.10
2017,03,26,15,05,9.10
2017,03,26,15,06,9.10
2017,03,26,15,07,9.10
2017,03,26,15,08,9.10
2017,03,26,15,09,9.10
2017,03,26,15,10,9.10
2017,03,26,15,11,9.10
2017,03,26,15,12,9.00
2017,03,26,15,13,9.10
2017,03,26,15,14,9.00
2017,03,26,15,15,9.00
2017,03,26,15,16,9.00
2017,03,26,15,17,9.00
2017,03,26,15,18,9.00
2017,03,26,15,19,8.90
2017,03,26,15,20,8.90
2017,03,26,15,21,8.90
2017,03,26,15,22,8.90
2017,03,26,15,23,8.90
2017,03,26,15,24,8.90
2017,03,26,15,25,8.90
2017,03,26,15,26,8.90
2017,03,26,15,27,8.90
2017,03,26,15,28,8.90
2017,03,26,15,29,8.90
2017,03,26,15,30,8.90
2017,03,26,15,31,8.90
2017,03,26,15,32,8.90
2017,03,26,15,33,8.90
2017,03,26,15,34,8.90
2017,03,26,15,35,8.90
2017,03,26,15,36,8.90
2017,03,26,15,37,8.90
2017,03,26,15,38,8.90
2017,03,26,15,39,8.90
2017,03,26,15,40,8.90
2017,03,26,15,41,8.90
2017,03,26,15,42,8.90
2017,03,26,15,43,8.90
2017,03,26,15,44,8.90
2017,03,26,15,45,8.90
2017,03,26,15,46,8.90
2017,03,26,15,47,8.90
2017,03,26,15,48,8.90
2017,03,26,15,49,8.80
2017,03,26,15,50,8.80
2017,03,26,15,51,8.80
2017,03,26,15,52,8.80
2017,03,26,15,53,8.80
2017,03,26,15,54,8.80
2017,03,26,15,55,8.80
2017,03,26,15,56,8.80
2017,03,26,15,57,8.80
2017,03,26,15,58,8.80
2017,03,26,15,59,8.80
2017,03,26,16,00,8.80
2017,03,26,16,01,8.80
2017,03,26,16,02,8.80
2017,03,26,16,03,8.70
2017,03,26,16,04,8.70
2017,03,26,16,05,8.70
2017,03,26,16,06,8.70
2017,03,26,16,07,8.70
2017,03,26,16,08,8.70
2017,03,26,16,09,8.70
2017,03,26,16,10,8.70
2017,03,26,16,11,8.70
2017,03,26,16,12,8.70
2017,03,26,16,13,8.70
2017,03,26,16,14,8.70
2017,03,26,16,15,8.60
2017,03,26,16,16,8.60
2017,03,26,16,17,8.60
2017,03,26,16,18,8.60
2017,03,26,16,19,8.60
2017,03,26,16,20,8.60
2017,03,26,16,21,8.70
2017,03,26,16,22,8.60
2017,03,26,16,23,8.70
2017,03,26,16,24,8.70
2017,03,26,16,25,8.70
2017,03,26,16,26,8.70
2017,03,26,16,27,8.70
2017,03,26,16,28,8.70
2017,03,26,16,29,8.70
2017,03,26,16,30,8.70
2017,03,26,16,31,8.70
2017,03,26,16,32,8.70
2017,03,26,16,33,8.70
2017,03,26,16,34,8.70
2017,03,26,16,35,8.70
2017,03,26,16,36,8.70
2017,03,26,16,37,8.70
2017,03,26,16,38,8.80
2017,03,26,16,39,8.80
2017,03,26,16,40,8.80
2017,03,26,16,41,8.80
2017,03,26,16,42,8.80
2017,03,26,16,43,8.80
2017,03,26,16,44,8.70
2017,03,26,16,45,8.70
2017,03,26,16,46,8.70
2017,03,26,16,47,8.70
2017,03,26,16,48,8.70
2017,03,26,16,49,8.70
2017,03,26,16,50,8.70
2017,03,26,16,51,8.70
2017,03,26,16,52,8.70
2017,03,26,16,53,8.70
2017,03,26,16,54,8.70
2017,03,26,16,55,8.70
2017,03,26,16,56,8.70
2017,03,26,16,57,8.70
2017,03,26,16,58,8.70
2017,03,26,16,59,8.70
2017,03,26,17,00,8.70
2017,03,26,17,01,8.60
2017,03,26,17,02,8.60
2017,03,26,17,03,8.60
2017,03,26,17,04,8.60
2017,03,26,17,05,8.60
2017,03,26,17,06,8.60
2017,03,26,17,07,8.60
2017,03,26,17,08,8.60
2017,03,26,17,09,8.60
2017,03,26,17,10,8.60
2017,03,26,17,11,8.60
2017,03,26,17,12,8.50
2017,03,26,17,13,8.50
2017,03,26,17,14,8.50
2017,03,26,17,15,8.50
2017,03,26,17,16,8.50
2017,03,26,17,17,8.40
2017,03,26,17,18,8.40
2017,03,26,17,19,8.40
2017,03,26,17,20,8.40
2017,03,26,17,21,8.40
2017,03,26,17,22,8.40
2017,03,26,17,23,8.40
2017,03,26,17,24,8.40
2017,03,26,17,25,8.40
2017,03,26,17,26,8.30
2017,03,26,17,27,8.30
2017,03,26,17,28,8.30
2017,03,26,17,29,8.30
2017,03,26,17,30,8.30
2017,03,26,17,31,8.30
2017,03,26,17,32,8.30
2017,03,26,17,33,8.30
2017,03,26,17,34,8.30
2017,03,26,17,35,8.40
2017,03,26,17,36,8.40
2017,03,26,17,37,8.40
2017,03,26,17,38,8.40
2017,03,26,17,39,8.40
2017,03,26,17,40,8.40
2017,03,26,17,41,8.30
2017,03,26,17,42,8.30
2017,03,26,17,43,8.30
2017,03,26,17,44,8.30
2017,03,26,17,45,8.30
2017,03,26,17,46,8.30
2017,03,26,17,47,8.30
2017,03,26,17,48,8.30
2017,03,26,17,49,8.30
2017,03,26,17,50,8.30
2017,03,26,17,51,8.30
2017,03,26,17,52,8.30
2017,03,26,17,53,8.30
2017,03,26,17,54,8.30
2017,03,26,17,55,8.30
2017,03,26,17,56,8.30
2017,03,26,17,57,8.30
2017,03,26,17,58,8.30
2017,03,26,17,59,8.30
2017,03,26,18,00,8.30
2017,03,26,18,01,8.30
2017,03,26,18,02,8.30
2017,03,26,18,03,8.20
2017,03,26,18,04,8.20
2017,03,26,18,05,8.20
2017,03,26,18,06,8.20